| time (UTC) | temp F | wind direction | speed MPH | gust MPH | rain 1hr in | rain 24hr in | rain mn in | humidity % | barometer mb |
| 20260509045006 | 73 | 114 | 2.0 | 6.0 | 0.00 | 0.00 | 0.00 | 91 | 1010.4 |
| 20260509044505 | 73 | 116 | 2.0 | 6.0 | 0.00 | 0.00 | 0.00 | 91 | 1010.5 |
| 20260509044006 | 73 | 119 | 1.0 | 4.0 | 0.00 | 0.00 | 0.00 | 91 | 1010.6 |
| 20260509043508 | 73 | 119 | 1.0 | 4.0 | 0.00 | 0.00 | 0.00 | 91 | 1010.6 |
| 20260509043005 | 73 | 165 | 1.0 | 5.0 | 0.00 | 0.00 | 0.00 | 91 | 1010.6 |
| 20260509042505 | 73 | 165 | 1.0 | 5.0 | 0.00 | 0.00 | 0.00 | 91 | 1010.6 |
| 20260509042005 | 73 | 168 | 2.0 | 5.0 | 0.00 | 0.00 | 0.00 | 91 | 1010.5 |
| 20260509041505 | 73 | 146 | 2.0 | 4.0 | 0.00 | 0.00 | 0.00 | 91 | 1010.5 |
| 20260509041005 | 73 | 99 | 1.0 | 4.0 | 0.00 | 0.00 | 0.00 | 91 | 1010.5 |
| 20260509040504 | 73 | 151 | 1.0 | 5.0 | 0.00 | 0.00 | 0.00 | 91 | 1010.5 |
| 20260509040005 | 73 | 151 | 1.0 | 6.0 | 0.00 | 0.00 | 0.00 | 91 | 1010.4 |
| 20260509035508 | 73 | 151 | 2.0 | 6.0 | 0.00 | 0.00 | 0.00 | 91 | 1010.3 |
| 20260509035004 | 73 | 117 | 1.0 | 4.0 | 0.00 | 0.00 | 0.00 | 91 | 1010.3 |
| 20260509034517 | 73 | 117 | 0.0 | 3.0 | 0.00 | 0.00 | 0.00 | 91 | 1010.3 |
| 20260509034004 | 73 | 116 | 0.0 | 4.0 | 0.00 | 0.00 | 0.00 | 90 | 1010.1 |
| 20260509033503 | 73 | 115 | 1.0 | 4.0 | 0.00 | 0.00 | 0.00 | 90 | 1010.1 |
| 20260509033004 | 73 | 130 | 1.0 | 3.0 | 0.00 | 0.00 | 0.00 | 90 | 1010.0 |
| 20260509032505 | 73 | 130 | 1.0 | 4.0 | 0.00 | 0.00 | 0.00 | 90 | 1010.0 |
| 20260509032005 | 73 | 130 | 1.0 | 4.0 | 0.00 | 0.00 | 0.00 | 90 | 1010.0 |
| 20260509031505 | 73 | 118 | 0.0 | 3.0 | 0.00 | 0.00 | 0.00 | 90 | 1010.0 |
| 20260509031003 | 73 | 118 | 1.0 | 3.0 | 0.00 | 0.00 | 0.00 | 90 | 1010.1 |
| 20260509030503 | 73 | 118 | 1.0 | 3.0 | 0.00 | 0.00 | 0.00 | 90 | 1010.0 |
| 20260509030002 | 73 | 119 | 1.0 | 3.0 | 0.00 | 0.00 | 0.00 | 90 | 1009.8 |
| 20260509025503 | 73 | 118 | 1.0 | 3.0 | 0.00 | 0.00 | 0.00 | 90 | 1010.0 |
| 20260509025003 | 73 | 118 | 1.0 | 3.0 | 0.00 | 0.00 | 0.00 | 90 | 1010.1 |
| 20260509024502 | 73 | 123 | 0.0 | 3.0 | 0.00 | 0.00 | 0.00 | 89 | 1010.1 |
| 20260509024005 | 73 | 123 | 1.0 | 3.0 | 0.00 | 0.00 | 0.00 | 89 | 1009.9 |
| 20260509023501 | 73 | 123 | 0.0 | 4.0 | 0.00 | 0.00 | 0.00 | 89 | 1009.9 |
| 20260509023002 | 73 | 123 | 1.0 | 4.0 | 0.00 | 0.00 | 0.00 | 89 | 1009.7 |
| 20260509022502 | 73 | 127 | 1.0 | 3.0 | 0.00 | 0.00 | 0.00 | 89 | 1009.7 |
| 20260509022002 | 73 | 94 | 1.0 | 3.0 | 0.00 | 0.00 | 0.00 | 89 | 1009.7 |
| 20260509021502 | 73 | 90 | 0.0 | 3.0 | 0.00 | 0.00 | 0.00 | 89 | 1009.6 |
| 20260509021001 | 73 | 90 | 1.0 | 3.0 | 0.00 | 0.00 | 0.00 | 89 | 1009.3 |
| 20260509020500 | 73 | 90 | 0.0 | 3.0 | 0.00 | 0.00 | 0.00 | 89 | 1009.3 |
| 20260509020001 | 73 | 94 | 0.0 | 3.0 | 0.00 | 0.00 | 0.00 | 89 | 1009.3 |
| 20260509015601 | 73 | 94 | 0.0 | 3.0 | 0.00 | 0.00 | 0.00 | 89 | 1009.3 |
| 20260509015101 | 73 | 94 | 0.0 | 3.0 | 0.00 | 0.00 | 0.00 | 89 | 1009.4 |
| 20260509014600 | 73 | 94 | 1.0 | 3.0 | 0.00 | 0.00 | 0.00 | 89 | 1009.3 |
| 20260509014100 | 73 | 94 | 0.0 | 3.0 | 0.00 | 0.00 | 0.00 | 89 | 1009.3 |
| 20260509013559 | 73 | 92 | 0.0 | 7.0 | 0.00 | 0.00 | 0.00 | 89 | 1009.2 |
| 20260509013100 | 73 | 98 | 2.0 | 7.0 | 0.00 | 0.00 | 0.00 | 89 | 1009.1 |
| 20260509012559 | 73 | 125 | 1.0 | 3.0 | 0.00 | 0.00 | 0.00 | 89 | 1009.2 |
| 20260509012101 | 73 | 126 | 0.0 | 2.0 | 0.00 | 0.00 | 0.00 | 89 | 1009.2 |
| 20260509011601 | 73 | 126 | 0.0 | 6.0 | 0.00 | 0.00 | 0.00 | 88 | 1009.2 |
| 20260509011058 | 73 | 126 | 0.0 | 6.0 | 0.00 | 0.00 | 0.00 | 88 | 1009.3 |
| 20260509010558 | 73 | 111 | 2.0 | 6.0 | 0.00 | 0.00 | 0.00 | 88 | 1009.2 |
| 20260509010104 | 73 | 96 | 1.0 | 6.0 | 0.00 | 0.00 | 0.00 | 88 | 1009.2 |
| 20260509005558 | 73 | 79 | 2.0 | 6.0 | 0.00 | 0.00 | 0.00 | 88 | 1009.1 |
| 20260509005057 | 73 | 112 | 2.0 | 4.0 | 0.00 | 0.00 | 0.00 | 88 | 1009.0 |
| 20260509004621 | 73 | 121 | 1.0 | 4.0 | 0.00 | 0.00 | 0.00 | 88 | 1009.0 |
| 20260509004057 | 73 | 118 | 2.0 | 4.0 | 0.00 | 0.00 | 0.00 | 88 | 1009.0 |
| 20260509003559 | 73 | 118 | 1.0 | 4.0 | 0.00 | 0.00 | 0.00 | 88 | 1009.1 |
| 20260509003057 | 73 | 106 | 2.0 | 4.0 | 0.00 | 0.00 | 0.00 | 88 | 1009.2 |
| 20260509002556 | 73 | 109 | 3.0 | 4.0 | 0.00 | 0.00 | 0.00 | 88 | 1009.1 |
| 20260509002056 | 73 | 113 | 1.0 | 4.0 | 0.00 | 0.00 | 0.00 | 88 | 1009.1 |
| 20260509001557 | 73 | 113 | 2.0 | 4.0 | 0.00 | 0.00 | 0.00 | 88 | 1009.2 |
| 20260509001056 | 73 | 113 | 2.0 | 6.0 | 0.00 | 0.00 | 0.00 | 88 | 1009.3 |
| 20260509000555 | 73 | 86 | 1.0 | 6.0 | 0.00 | 0.00 | 0.00 | 88 | 1009.2 |
| 20260509000056 | 73 | 125 | 2.0 | 5.0 | 0.00 | 0.00 | 0.00 | 88 | 1009.2 |
| 20260508235556 | 73 | 66 | 2.0 | 7.0 | 0.00 | 0.00 | 0.00 | 88 | 1009.3 |
| 20260508235059 | 73 | 95 | 2.0 | 7.0 | 0.00 | 0.00 | 0.00 | 88 | 1009.2 |
| 20260508234604 | 73 | 100 | 1.0 | 7.0 | 0.00 | 0.00 | 0.00 | 88 | 1009.1 |
| 20260508234058 | 73 | 43 | 2.0 | 7.0 | 0.00 | 0.00 | 0.00 | 88 | 1009.2 |
| 20260508233559 | 73 | 82 | 2.0 | 6.0 | 0.00 | 0.00 | 0.00 | 88 | 1009.1 |
| 20260508233054 | 73 | 117 | 2.0 | 6.0 | 0.00 | 0.00 | 0.00 | 88 | 1009.1 |
| 20260508232556 | 73 | 84 | 2.0 | 6.0 | 0.00 | 0.00 | 0.00 | 88 | 1009.3 |
| 20260508232055 | 73 | 90 | 2.0 | 4.0 | 0.00 | 0.00 | 0.00 | 88 | 1009.4 |
| 20260508231556 | 73 | 109 | 2.0 | 4.0 | 0.00 | 0.00 | 0.00 | 88 | 1009.5 |
| 20260508231053 | 73 | 146 | 1.0 | 7.0 | 0.00 | 0.00 | 0.00 | 88 | 1009.6 |
| 20260508230553 | 73 | 109 | 2.0 | 7.0 | 0.00 | 0.00 | 0.00 | 87 | 1009.6 |
| 20260508230055 | 73 | 108 | 1.0 | 5.0 | 0.00 | 0.00 | 0.00 | 87 | 1009.6 |
| 20260508225552 | 73 | 75 | 1.0 | 6.0 | 0.00 | 0.00 | 0.00 | 88 | 1009.4 |
| 20260508225052 | 73 | 71 | 3.0 | 7.0 | 0.00 | 0.00 | 0.00 | 87 | 1009.4 |
| 20260508224553 | 73 | 132 | 2.0 | 9.0 | 0.00 | 0.00 | 0.00 | 87 | 1009.4 |
| 20260508224051 | 73 | 154 | 3.0 | 9.0 | 0.00 | 0.00 | 0.00 | 87 | 1009.3 |
| 20260508223551 | 73 | 103 | 0.0 | 6.0 | 0.00 | 0.00 | 0.00 | 87 | 1009.3 |
| 20260508223053 | 73 | 108 | 2.0 | 6.0 | 0.00 | 0.00 | 0.00 | 87 | 1009.4 |
| 20260508222550 | 73 | 38 | 1.0 | 4.0 | 0.00 | 0.00 | 0.00 | 87 | 1009.4 |
| 20260508222049 | 73 | 116 | 2.0 | 6.0 | 0.00 | 0.00 | 0.00 | 87 | 1009.4 |
| 20260508221551 | 73 | 161 | 1.0 | 7.0 | 0.00 | 0.00 | 0.00 | 87 | 1009.4 |
| 20260508221049 | 73 | 121 | 3.0 | 7.0 | 0.00 | 0.00 | 0.00 | 87 | 1009.4 |
| 20260508220548 | 73 | 83 | 1.0 | 5.0 | 0.00 | 0.00 | 0.00 | 87 | 1009.5 |
| 20260508220049 | 73 | 90 | 1.0 | 6.0 | 0.00 | 0.00 | 0.00 | 87 | 1009.5 |
| 20260508215548 | 73 | 79 | 1.0 | 6.0 | 0.00 | 0.00 | 0.00 | 87 | 1009.5 |
| 20260508215049 | 73 | 121 | 1.0 | 7.0 | 0.00 | 0.00 | 0.00 | 87 | 1009.6 |
| 20260508214601 | 73 | 131 | 3.0 | 7.0 | 0.00 | 0.00 | 0.00 | 86 | 1009.6 |
| 20260508214047 | 74 | 111 | 1.0 | 7.0 | 0.00 | 0.00 | 0.00 | 86 | 1009.6 |
| 20260508213547 | 74 | 113 | 1.0 | 5.0 | 0.00 | 0.00 | 0.00 | 87 | 1009.5 |
| 20260508213047 | 74 | 42 | 2.0 | 7.0 | 0.00 | 0.00 | 0.00 | 87 | 1009.5 |
| 20260508212546 | 73 | 115 | 2.0 | 7.0 | 0.00 | 0.00 | 0.00 | 87 | 1009.7 |
| 20260508212045 | 73 | 152 | 3.0 | 7.0 | 0.00 | 0.00 | 0.00 | 86 | 1009.9 |
| 20260508211544 | 74 | 140 | 2.0 | 5.0 | 0.00 | 0.00 | 0.00 | 86 | 1010.0 |
| 20260508211046 | 74 | 117 | 2.0 | 6.0 | 0.00 | 0.00 | 0.00 | 86 | 1010.0 |
| 20260508210543 | 74 | 53 | 1.0 | 4.0 | 0.00 | 0.00 | 0.00 | 87 | 1010.0 |
| 20260508210043 | 73 | 83 | 1.0 | 4.0 | 0.00 | 0.00 | 0.00 | 87 | 1010.0 |
| 20260508205540 | 73 | 113 | 1.0 | 3.0 | 0.00 | 0.00 | 0.00 | 87 | 1010.0 |
| 20260508205040 | 73 | 113 | 0.0 | 4.0 | 0.00 | 0.00 | 0.00 | 87 | 1010.2 |
| 20260508204538 | 73 | 117 | 1.0 | 5.0 | 0.00 | 0.00 | 0.00 | 87 | 1010.0 |
| 20260508204036 | 73 | 160 | 2.0 | 5.0 | 0.00 | 0.00 | 0.00 | 87 | 1010.1 |
| 20260508203535 | 73 | 100 | 2.0 | 8.0 | 0.00 | 0.00 | 0.00 | 87 | 1010.2 |
| 20260508203036 | 73 | 96 | 3.0 | 8.0 | 0.00 | 0.00 | 0.00 | 87 | 1010.2 |
| 20260508202536 | 73 | 105 | 3.0 | 6.0 | 0.00 | 0.00 | 0.00 | 88 | 1010.1 |
| 20260508202034 | 73 | 101 | 3.0 | 8.0 | 0.00 | 0.00 | 0.00 | 88 | 1010.1 |
| 20260508201533 | 73 | 115 | 3.0 | 8.0 | 0.00 | 0.00 | 0.00 | 89 | 1010.3 |
| 20260508201031 | 72 | 166 | 4.0 | 8.0 | 0.00 | 0.00 | 0.00 | 90 | 1010.3 |
| 20260508200530 | 72 | 99 | 3.0 | 8.0 | 0.00 | 0.00 | 0.00 | 90 | 1010.2 |
| 20260508200035 | 71 | 117 | 3.0 | 5.0 | 0.00 | 0.00 | 0.00 | 90 | 1010.4 |
| 20260508195527 | 71 | 171 | 1.0 | 4.0 | 0.00 | 0.00 | 0.00 | 90 | 1010.7 |
| 20260508195026 | 71 | 82 | 0.0 | 5.0 | 0.00 | 0.00 | 0.00 | 91 | 1010.8 |
| 20260508194525 | 71 | 96 | 2.0 | 5.0 | 0.00 | 0.00 | 0.00 | 90 | 1010.7 |
| 20260508194027 | 71 | 40 | 1.0 | 5.0 | 0.00 | 0.00 | 0.00 | 91 | 1010.6 |
| 20260508193522 | 70 | 158 | 2.0 | 5.0 | 0.00 | 0.00 | 0.00 | 90 | 1010.9 |
| 20260508193021 | 70 | 161 | 0.0 | 2.0 | 0.00 | 0.00 | 0.00 | 90 | 1011.2 |
| 20260508192521 | 70 | 161 | 0.0 | 2.0 | 0.00 | 0.00 | 0.00 | 91 | 1011.3 |
| 20260508192020 | 70 | 161 | 0.0 | 2.0 | 0.00 | 0.00 | 0.00 | 91 | 1011.3 |
| 20260508191522 | 70 | 161 | 0.0 | 5.0 | 0.00 | 0.00 | 0.00 | 91 | 1011.4 |
| 20260508191020 | 70 | 161 | 0.0 | 5.0 | 0.00 | 0.00 | 0.00 | 90 | 1011.4 |
| 20260508190520 | 70 | 161 | 0.0 | 5.0 | 0.00 | 0.00 | 0.00 | 90 | 1011.4 |
| 20260508190038 | 69 | 161 | 1.0 | 5.0 | 0.00 | 0.00 | 0.00 | 90 | 1011.3 |
| 20260508185522 | 70 | 130 | 1.0 | 7.0 | 0.00 | 0.00 | 0.00 | 90 | 1011.2 |
| 20260508185019 | 70 | 140 | 1.0 | 7.0 | 0.00 | 0.00 | 0.00 | 90 | 1011.2 |
| 20260508184529 | 70 | 111 | 2.0 | 6.0 | 0.00 | 0.00 | 0.00 | 90 | 1011.2 |
| 20260508184020 | 70 | 125 | 1.0 | 7.0 | 0.00 | 0.00 | 0.00 | 90 | 1011.3 |
| 20260508183518 | 70 | 82 | 1.0 | 7.0 | 0.00 | 0.00 | 0.00 | 90 | 1011.3 |
| 20260508183031 | 70 | 128 | 1.0 | 8.0 | 0.00 | 0.00 | 0.00 | 91 | 1011.2 |
| 20260508182519 | 69 | 133 | 1.0 | 8.0 | 0.00 | 0.00 | 0.00 | 90 | 1011.1 |
| 20260508182017 | 70 | 170 | 3.0 | 9.0 | 0.00 | 0.00 | 0.00 | 90 | 1011.3 |
| 20260508181519 | 69 | 154 | 0.0 | 6.0 | 0.00 | 0.00 | 0.00 | 90 | 1011.3 |
| 20260508181016 | 69 | 170 | 2.0 | 6.0 | 0.00 | 0.00 | 0.00 | 90 | 1011.4 |
| 20260508180515 | 69 | 149 | 2.0 | 6.0 | 0.00 | 0.00 | 0.00 | 89 | 1011.5 |
| 20260508180014 | 69 | 136 | 0.0 | 2.0 | 0.00 | 0.00 | 0.00 | 89 | 1011.7 |
| 20260508175514 | 69 | 136 | 0.0 | 5.0 | 0.00 | 0.00 | 0.00 | 89 | 1011.9 |
| 20260508175014 | 69 | 136 | 1.0 | 5.0 | 0.00 | 0.00 | 0.00 | 89 | 1011.9 |
| 20260508174511 | 69 | 109 | 2.0 | 6.0 | 0.00 | 0.00 | 0.00 | 88 | 1011.9 |
| 20260508174012 | 69 | 108 | 1.0 | 4.0 | 0.00 | 0.00 | 0.00 | 88 | 1012.0 |
| 20260508173511 | 69 | 132 | 2.0 | 4.0 | 0.00 | 0.00 | 0.00 | 87 | 1012.2 |
| 20260508173013 | 69 | 97 | 0.0 | 3.0 | 0.00 | 0.00 | 0.00 | 87 | 1012.2 |
| 20260508172511 | 69 | 113 | 0.0 | 3.0 | 0.00 | 0.00 | 0.00 | 87 | 1012.3 |
| 20260508172011 | 69 | 113 | 1.0 | 3.0 | 0.00 | 0.00 | 0.00 | 87 | 1012.2 |
| 20260508171510 | 69 | 113 | 1.0 | 6.0 | 0.00 | 0.00 | 0.00 | 87 | 1012.2 |
| 20260508171010 | 69 | 114 | 1.0 | 9.0 | 0.00 | 0.00 | 0.00 | 87 | 1012.3 |
| 20260508170510 | 69 | 121 | 3.0 | 9.0 | 0.00 | 0.00 | 0.00 | 86 | 1012.2 |
| 20260508170011 | 69 | 96 | 2.0 | 8.0 | 0.00 | 0.00 | 0.00 | 86 | 1012.3 |
| 20260508165509 | 69 | 117 | 2.0 | 6.0 | 0.00 | 0.00 | 0.00 | 86 | 1012.3 |
| 20260508165012 | 69 | 113 | 2.0 | 6.0 | 0.00 | 0.00 | 0.00 | 86 | 1012.5 |
| 20260508164519 | 69 | 84 | 1.0 | 5.0 | 0.00 | 0.00 | 0.00 | 86 | 1012.7 |
| 20260508164009 | 69 | 113 | 2.0 | 6.0 | 0.00 | 0.00 | 0.00 | 87 | 1012.9 |
| 20260508163509 | 69 | 134 | 2.0 | 9.0 | 0.00 | 0.00 | 0.00 | 87 | 1012.8 |
| 20260508163014 | 68 | 140 | 3.0 | 12.0 | 0.00 | 0.00 | 0.00 | 87 | 1012.4 |
| 20260508162508 | 68 | 82 | 6.0 | 12.0 | 0.00 | 0.00 | 0.00 | 87 | 1012.0 |
| 20260508162008 | 68 | 82 | 2.0 | 8.0 | 0.00 | 0.00 | 0.00 | 86 | 1012.5 |
| 20260508161511 | 68 | 75 | 3.0 | 9.0 | 0.00 | 0.00 | 0.00 | 85 | 1012.7 |
| 20260508161008 | 69 | 146 | 4.0 | 9.0 | 0.00 | 0.00 | 0.00 | 84 | 1012.7 |
| 20260508160510 | 68 | 58 | 3.0 | 10.0 | 0.00 | 0.00 | 0.00 | 83 | 1012.8 |
| 20260508160007 | 68 | 98 | 3.0 | 9.0 | 0.00 | 0.00 | 0.00 | 83 | 1013.0 |
| 20260508155509 | 68 | 100 | 2.0 | 8.0 | 0.00 | 0.00 | 0.00 | 83 | 1013.2 |
| 20260508155008 | 68 | 20 | 3.0 | 8.0 | 0.00 | 0.00 | 0.00 | 83 | 1013.3 |
| 20260508154509 | 68 | 36 | 2.0 | 8.0 | 0.00 | 0.00 | 0.00 | 84 | 1013.3 |
| 20260508154105 | 68 | 72 | 1.0 | 8.0 | 0.00 | 0.00 | 0.00 | 84 | 1013.3 |
| 20260508153508 | 68 | 18 | 2.0 | 6.0 | 0.00 | 0.00 | 0.00 | 84 | 1013.2 |
| 20260508153012 | 68 | 22 | 3.0 | 9.0 | 0.00 | 0.00 | 0.00 | 84 | 1013.1 |
| 20260508152607 | 68 | 331 | 2.0 | 9.0 | 0.00 | 0.00 | 0.00 | 85 | 1013.1 |
| 20260508152008 | 68 | 342 | 2.0 | 6.0 | 0.00 | 0.00 | 0.00 | 85 | 1013.1 |
| 20260508151505 | 68 | 348 | 1.0 | 8.0 | 0.00 | 0.00 | 0.00 | 85 | 1013.1 |
| 20260508151005 | 68 | 51 | 3.0 | 8.0 | 0.00 | 0.00 | 0.00 | 85 | 1013.1 |
| 20260508150505 | 68 | 355 | 1.0 | 10.0 | 0.00 | 0.00 | 0.00 | 85 | 1013.1 |
| 20260508150005 | 68 | 103 | 3.0 | 10.0 | 0.00 | 0.00 | 0.00 | 85 | 1013.2 |
| 20260508145505 | 68 | 45 | 1.0 | 9.0 | 0.00 | 0.00 | 0.00 | 86 | 1013.3 |
| 20260508145005 | 68 | 43 | 3.0 | 9.0 | 0.00 | 0.00 | 0.00 | 86 | 1013.3 |
| 20260508144507 | 68 | 327 | 2.0 | 6.0 | 0.00 | 0.00 | 0.00 | 86 | 1013.2 |
| 20260508144003 | 68 | 26 | 3.0 | 6.0 | 0.00 | 0.00 | 0.00 | 86 | 1013.2 |
| 20260508143502 | 68 | 17 | 2.0 | 6.0 | 0.00 | 0.00 | 0.00 | 86 | 1013.2 |
| 20260508143004 | 68 | 11 | 2.0 | 6.0 | 0.00 | 0.00 | 0.00 | 86 | 1013.1 |
| 20260508142502 | 68 | 346 | 2.0 | 6.0 | 0.00 | 0.00 | 0.00 | 86 | 1012.8 |
| 20260508142004 | 68 | 95 | 1.0 | 4.0 | 0.00 | 0.00 | 0.00 | 87 | 1013.0 |
| 20260508141509 | 68 | 27 | 2.0 | 4.0 | 0.00 | 0.00 | 0.00 | 86 | 1013.1 |
| 20260508141003 | 68 | 76 | 0.0 | 4.0 | 0.00 | 0.00 | 0.00 | 86 | 1013.1 |
| 20260508140503 | 68 | 5 | 0.0 | 3.0 | 0.00 | 0.00 | 0.00 | 87 | 1013.3 |
| 20260508140004 | 68 | 45 | 2.0 | 3.0 | 0.00 | 0.00 | 0.00 | 86 | 1013.2 |
| 20260508135504 | 68 | 126 | 1.0 | 3.0 | 0.00 | 0.00 | 0.00 | 86 | 1013.1 |
| 20260508135004 | 68 | 153 | 0.0 | 5.0 | 0.00 | 0.00 | 0.00 | 87 | 1013.1 |
| 20260508134504 | 68 | 153 | 2.0 | 5.0 | 0.00 | 0.00 | 0.00 | 87 | 1013.0 |
| 20260508134001 | 68 | 98 | 3.0 | 7.0 | 0.00 | 0.00 | 0.00 | 87 | 1012.9 |
| 20260508133503 | 68 | 134 | 2.0 | 8.0 | 0.00 | 0.00 | 0.00 | 86 | 1012.8 |
| 20260508133002 | 68 | 108 | 3.0 | 8.0 | 0.00 | 0.00 | 0.00 | 86 | 1012.8 |
| 20260508132559 | 67 | 101 | 2.0 | 4.0 | 0.00 | 0.00 | 0.00 | 86 | 1012.9 |
| 20260508132100 | 67 | 84 | 1.0 | 4.0 | 0.00 | 0.00 | 0.00 | 86 | 1013.0 |
| 20260508131608 | 68 | 103 | 2.0 | 4.0 | 0.00 | 0.00 | 0.00 | 86 | 1013.1 |
| 20260508131100 | 67 | 101 | 1.0 | 4.0 | 0.00 | 0.00 | 0.00 | 86 | 1013.2 |
| 20260508130559 | 68 | 101 | 1.0 | 6.0 | 0.00 | 0.00 | 0.00 | 85 | 1013.3 |
| 20260508130059 | 68 | 140 | 2.0 | 6.0 | 0.00 | 0.00 | 0.00 | 85 | 1013.3 |
| 20260508125559 | 68 | 77 | 1.0 | 3.0 | 0.00 | 0.00 | 0.00 | 85 | 1013.4 |
| 20260508125058 | 68 | 77 | 0.0 | 4.0 | 0.00 | 0.00 | 0.00 | 84 | 1013.3 |
| 20260508124557 | 68 | 83 | 1.0 | 6.0 | 0.00 | 0.00 | 0.00 | 84 | 1013.2 |
| 20260508124058 | 68 | 27 | 2.0 | 6.0 | 0.00 | 0.00 | 0.00 | 84 | 1013.1 |
| 20260508123557 | 68 | 59 | 1.0 | 6.0 | 0.00 | 0.00 | 0.00 | 84 | 1013.3 |
| 20260508123115 | 68 | 49 | 1.0 | 6.0 | 0.00 | 0.00 | 0.00 | 84 | 1013.1 |
| 20260508122557 | 68 | 323 | 1.0 | 9.0 | 0.00 | 0.00 | 0.00 | 84 | 1013.0 |
| 20260508122057 | 67 | 360 | 3.0 | 9.0 | 0.00 | 0.00 | 0.00 | 84 | 1013.0 |
| 20260508121608 | 67 | 5 | 2.0 | 4.0 | 0.00 | 0.00 | 0.00 | 84 | 1013.0 |
| 20260508121056 | 67 | 355 | 1.0 | 5.0 | 0.00 | 0.00 | 0.00 | 84 | 1013.0 |
| 20260508120556 | 67 | 14 | 2.0 | 5.0 | 0.00 | 0.00 | 0.00 | 85 | 1013.3 |
| 20260508120110 | 67 | 11 | 0.0 | 6.0 | 0.00 | 0.00 | 0.00 | 85 | 1013.4 |
| 20260508115556 | 67 | 349 | 2.0 | 6.0 | 0.00 | 0.00 | 0.00 | 85 | 1013.6 |
| 20260508115056 | 67 | 22 | 1.0 | 4.0 | 0.00 | 0.00 | 0.00 | 84 | 1013.7 |
| 20260508114602 | 67 | 5 | 1.0 | 8.0 | 0.00 | 0.00 | 0.00 | 84 | 1013.7 |
| 20260508114058 | 67 | 21 | 3.0 | 8.0 | 0.00 | 0.00 | 0.00 | 84 | 1013.7 |
| 20260508113558 | 67 | 346 | 3.0 | 6.0 | 0.00 | 0.00 | 0.00 | 84 | 1013.5 |
| 20260508113107 | 67 | 13 | 1.0 | 6.0 | 0.00 | 0.00 | 0.00 | 83 | 1013.4 |
| 20260508112554 | 67 | 15 | 3.0 | 5.0 | 0.00 | 0.00 | 0.00 | 82 | 1013.3 |
| 20260508112053 | 67 | 27 | 1.0 | 3.0 | 0.00 | 0.00 | 0.00 | 82 | 1013.0 |
| 20260508111553 | 67 | 103 | 1.0 | 6.0 | 0.00 | 0.00 | 0.00 | 82 | 1012.8 |
| 20260508111053 | 67 | 92 | 2.0 | 6.0 | 0.00 | 0.00 | 0.00 | 82 | 1012.8 |
| 20260508110552 | 68 | 103 | 2.0 | 4.0 | 0.00 | 0.00 | 0.00 | 82 | 1013.0 |
| 20260508110105 | 68 | 122 | 1.0 | 6.0 | 0.00 | 0.00 | 0.00 | 81 | 1012.9 |
| 20260508105555 | 68 | 99 | 2.0 | 6.0 | 0.00 | 0.00 | 0.00 | 81 | 1013.1 |
| 20260508105051 | 68 | 83 | 1.0 | 5.0 | 0.00 | 0.00 | 0.00 | 80 | 1013.1 |
| 20260508104550 | 68 | 99 | 2.0 | 6.0 | 0.00 | 0.00 | 0.00 | 80 | 1013.0 |
| 20260508104050 | 68 | 46 | 2.0 | 8.0 | 0.00 | 0.00 | 0.00 | 79 | 1012.8 |
| 20260508103549 | 68 | 13 | 3.0 | 7.0 | 0.00 | 0.00 | 0.00 | 79 | 1012.9 |
| 20260508103100 | 68 | 350 | 2.0 | 6.0 | 0.00 | 0.00 | 0.00 | 79 | 1013.0 |
| 20260508102548 | 68 | 344 | 2.0 | 6.0 | 0.00 | 0.00 | 0.00 | 79 | 1013.1 |
| 20260508102048 | 68 | 9 | 2.0 | 6.0 | 0.00 | 0.00 | 0.00 | 80 | 1012.8 |
| 20260508101554 | 68 | 54 | 1.0 | 5.0 | 0.00 | 0.00 | 0.00 | 79 | 1012.7 |
| 20260508101050 | 68 | 24 | 1.0 | 6.0 | 0.00 | 0.00 | 0.00 | 79 | 1013.0 |
| 20260508100547 | 69 | 338 | 3.0 | 6.0 | 0.00 | 0.00 | 0.00 | 79 | 1013.2 |
| 20260508100047 | 69 | 11 | 2.0 | 6.0 | 0.00 | 0.00 | 0.00 | 79 | 1013.0 |
| 20260508095547 | 69 | 18 | 3.0 | 6.0 | 0.00 | 0.00 | 0.00 | 78 | 1012.9 |
| 20260508095047 | 69 | 15 | 3.0 | 6.0 | 0.00 | 0.00 | 0.00 | 78 | 1013.0 |
| 20260508094546 | 69 | 18 | 3.0 | 5.0 | 0.00 | 0.00 | 0.00 | 78 | 1013.0 |
| 20260508094045 | 69 | 73 | 1.0 | 8.0 | 0.00 | 0.00 | 0.00 | 78 | 1012.8 |
| 20260508093548 | 69 | 12 | 2.0 | 8.0 | 0.00 | 0.00 | 0.00 | 78 | 1013.0 |
| 20260508093045 | 69 | 338 | 3.0 | 6.0 | 0.00 | 0.00 | 0.00 | 78 | 1013.0 |
| 20260508092544 | 69 | 16 | 1.0 | 6.0 | 0.00 | 0.00 | 0.00 | 78 | 1012.6 |
| 20260508092044 | 69 | 118 | 2.0 | 6.0 | 0.00 | 0.00 | 0.00 | 77 | 1012.3 |
| 20260508091544 | 69 | 97 | 3.0 | 6.0 | 0.00 | 0.00 | 0.00 | 77 | 1012.3 |
| 20260508091043 | 69 | 126 | 3.0 | 5.0 | 0.00 | 0.00 | 0.00 | 77 | 1012.6 |
| 20260508090544 | 69 | 28 | 1.0 | 7.0 | 0.00 | 0.00 | 0.00 | 77 | 1012.5 |
| 20260508090043 | 69 | 78 | 2.0 | 7.0 | 0.00 | 0.00 | 0.00 | 77 | 1012.5 |
| 20260508085541 | 69 | 56 | 3.0 | 7.0 | 0.00 | 0.00 | 0.00 | 76 | 1012.3 |
| 20260508085040 | 70 | 119 | 3.0 | 5.0 | 0.00 | 0.00 | 0.00 | 76 | 1012.4 |
| 20260508084539 | 70 | 82 | 1.0 | 5.0 | 0.00 | 0.00 | 0.00 | 76 | 1012.7 |
| 20260508084039 | 70 | 62 | 1.0 | 7.0 | 0.00 | 0.00 | 0.00 | 76 | 1013.0 |
| 20260508083538 | 70 | 46 | 1.0 | 7.0 | 0.00 | 0.00 | 0.00 | 76 | 1013.0 |
| 20260508083037 | 70 | 63 | 1.0 | 6.0 | 0.00 | 0.00 | 0.00 | 75 | 1013.2 |
| 20260508082537 | 70 | 15 | 3.0 | 6.0 | 0.00 | 0.00 | 0.00 | 75 | 1013.0 |
| 20260508082036 | 70 | 78 | 1.0 | 4.0 | 0.00 | 0.00 | 0.00 | 75 | 1012.9 |
| 20260508081536 | 70 | 32 | 1.0 | 4.0 | 0.00 | 0.00 | 0.00 | 75 | 1013.0 |
| 20260508081036 | 70 | 17 | 1.0 | 5.0 | 0.00 | 0.00 | 0.00 | 75 | 1013.0 |
| 20260508080535 | 70 | 5 | 2.0 | 8.0 | 0.00 | 0.00 | 0.00 | 75 | 1012.9 |
| 20260508080041 | 70 | 24 | 2.0 | 8.0 | 0.00 | 0.00 | 0.00 | 75 | 1012.8 |
| 20260508075534 | 70 | 87 | 1.0 | 4.0 | 0.00 | 0.00 | 0.00 | 75 | 1012.8 |
| 20260508075033 | 70 | 25 | 1.0 | 4.0 | 0.00 | 0.00 | 0.00 | 75 | 1013.0 |
| 20260508074533 | 70 | 37 | 1.0 | 5.0 | 0.00 | 0.00 | 0.00 | 75 | 1013.1 |
| 20260508074032 | 70 | 11 | 1.0 | 5.0 | 0.00 | 0.00 | 0.00 | 75 | 1013.2 |
| 20260508073533 | 70 | 51 | 1.0 | 6.0 | 0.00 | 0.00 | 0.00 | 75 | 1013.4 |
| 20260508073036 | 70 | 16 | 2.0 | 6.0 | 0.00 | 0.00 | 0.00 | 75 | 1013.4 |
| 20260508072534 | 70 | 15 | 2.0 | 5.0 | 0.00 | 0.00 | 0.00 | 75 | 1013.4 |
| 20260508072032 | 70 | 62 | 2.0 | 5.0 | 0.00 | 0.00 | 0.00 | 75 | 1013.3 |
| 20260508071534 | 70 | 350 | 2.0 | 5.0 | 0.00 | 0.00 | 0.00 | 75 | 1013.3 |
| 20260508071031 | 70 | 53 | 2.0 | 5.0 | 0.00 | 0.00 | 0.00 | 75 | 1013.3 |
| 20260508070531 | 70 | 53 | 1.0 | 5.0 | 0.00 | 0.00 | 0.00 | 75 | 1013.3 |
| 20260508070032 | 70 | 13 | 2.0 | 4.0 | 0.00 | 0.00 | 0.00 | 75 | 1013.3 |
| 20260508065532 | 70 | 19 | 1.0 | 3.0 | 0.00 | 0.00 | 0.00 | 75 | 1013.4 |
| 20260508065035 | 70 | 18 | 1.0 | 3.0 | 0.00 | 0.00 | 0.00 | 75 | 1013.6 |
| 20260508064538 | 70 | 18 | 0.0 | 3.0 | 0.00 | 0.00 | 0.00 | 75 | 1013.5 |
| 20260508064031 | 70 | 80 | 0.0 | 3.0 | 0.00 | 0.00 | 0.00 | 75 | 1013.5 |
| 20260508063531 | 70 | 80 | 0.0 | 2.0 | 0.00 | 0.00 | 0.00 | 75 | 1013.5 |
| 20260508063042 | 70 | 80 | 0.0 | 3.0 | 0.00 | 0.00 | 0.00 | 75 | 1013.4 |
| 20260508062533 | 70 | 80 | 0.0 | 3.0 | 0.00 | 0.00 | 0.00 | 75 | 1013.3 |
| 20260508062029 | 70 | 82 | 1.0 | 3.0 | 0.00 | 0.00 | 0.00 | 75 | 1013.2 |
| 20260508061531 | 70 | 54 | 0.0 | 3.0 | 0.00 | 0.00 | 0.00 | 74 | 1013.3 |
| 20260508061029 | 70 | 53 | 1.0 | 4.0 | 0.00 | 0.00 | 0.00 | 74 | 1013.2 |
| 20260508060529 | 70 | 88 | 1.0 | 3.0 | 0.00 | 0.00 | 0.00 | 74 | 1013.1 |
| 20260508060028 | 70 | 49 | 1.0 | 4.0 | 0.00 | 0.00 | 0.00 | 74 | 1013.4 |
| 20260508055527 | 70 | 49 | 0.0 | 4.0 | 0.00 | 0.00 | 0.00 | 74 | 1013.5 |
| 20260508055027 | 70 | 84 | 1.0 | 3.0 | 0.00 | 0.00 | 0.00 | 73 | 1013.4 |
| 20260508054526 | 70 | 85 | 1.0 | 6.0 | 0.00 | 0.00 | 0.00 | 73 | 1013.5 |
| 20260508054026 | 70 | 96 | 1.0 | 6.0 | 0.00 | 0.00 | 0.00 | 73 | 1013.3 |
| 20260508053524 | 71 | 93 | 1.0 | 4.0 | 0.00 | 0.00 | 0.00 | 73 | 1013.3 |
| 20260508053024 | 71 | 79 | 1.0 | 3.0 | 0.00 | 0.00 | 0.00 | 72 | 1013.4 |
| 20260508052527 | 71 | 80 | 0.0 | 3.0 | 0.00 | 0.00 | 0.00 | 72 | 1013.6 |
| 20260508052025 | 71 | 78 | 1.0 | 3.0 | 0.00 | 0.00 | 0.00 | 72 | 1013.4 |
| 20260508051522 | 71 | 57 | 1.0 | 5.0 | 0.00 | 0.00 | 0.00 | 72 | 1013.5 |
| 20260508051024 | 71 | 56 | 1.0 | 4.0 | 0.00 | 0.00 | 0.00 | 71 | 1013.4 |
| 20260508050522 | 71 | 10 | 2.0 | 4.0 | 0.00 | 0.00 | 0.00 | 71 | 1013.4 |
| 20260508050032 | 71 | 360 | 2.0 | 8.0 | 0.00 | 0.00 | 0.00 | 71 | 1013.4 |
| 20260508045521 | 71 | 360 | 2.0 | 8.0 | 0.00 | 0.00 | 0.00 | 71 | 1013.4 |